Location: Cahas Mountain Overlook
(37.0833°N, 80.1000°W)
Time: 06:35:04
(UTC-05:00)

Vanguard 2 Rocket - Pass Details

Date: 09 February 2026
Orbit: 553 x 3287 km, 32.9° (Epoch: 5 March)

Event Time Altitude Azimuth Distance (km) Brightness Sun altitude
Rises 18:09:08 0° 267° (W) 5,239 12.9 -3.7°
Reaches altitude 10° 18:13:20 10° 265° (W) 3,782 11.9 -4.5°
Maximum altitude 18:22:05 61° 188° (S) 1,134 7.5 -6.2°
Drops below altitude 10° 18:27:14 10° 108° (ESE) 2,271 8.4 -7.2°
Enters shadow 18:28:07 - 106° (ESE) 2,598 8.7 -7.4°
